#timestamp,LO_Frequency,Hit,StdDev 
1683212415.3,286046996.5,N
1683212435.1,286046999.0,N
1683212455.9,286046999.6,N
1683212475.7,286046995.3,Y
1683212495.5,286047000.0,P
1683212515.4,286047000.3,N
1683212535.2,286046999.8,N
1683212555.1,286046999.8,N
1683212556.0,286046999.8,N
1683212575.8,286047001.9,N
1683212595.6,286047002.8,N
1683212615.5,286046996.9,N
1683212635.3,286046996.9,N
1683212655.1,286046997.9,N
1683212675.9,286046995.1,N
1683212695.7,286046996.2,N
1683212715.6,286046993.3,Y
1683212735.4,286046996.2,P
1683212755.2,286046997.6,N
1683212775.1,286046999.3,N
1683212776.0,286046999.3,N
1683212795.8,286046998.1,N
1683212815.6,286046998.1,N
1683212835.5,286046998.3,N
1683212855.3,286047001.2,N
1683212875.1,286047000.4,N
1683212895.9,286046999.8,N
1683212915.7,286047002.7,N
1683212935.6,286046999.8,N
1683212955.4,286047002.2,N
1683212975.2,286047001.6,N
1683212995.1,286047004.4,N
1683212996.0,286047004.4,N
1683213015.8,286047001.4,N
1683213035.6,286047002.0,N
1683213055.5,286047001.9,N
1683213075.3,286047001.4,N
1683213095.2,286047003.8,N
1683213115.9,286047003.3,N
1683213135.7,286047003.6,N
1683213155.6,286047004.4,N
1683213175.4,286047003.9,N
1683213195.2,286047004.4,N
1683213215.1,286047004.2,N
1683213216.0,286047004.2,N
1683213235.8,286047004.0,N
1683213255.7,286047004.4,N
1683213275.5,286047003.6,N
1683213295.3,286047003.8,N
1683213315.2,286047003.2,N
1683213335.0,286047003.0,N
1683213335.9,286047003.0,N
1683213355.8,286047005.9,Y
1683213375.6,286046999.8,P
1683213395.4,286047002.7,N
1683213415.3,286047001.6,N
1683213435.1,286047001.4,N
1683213455.8,286047004.0,Y
1683213475.7,286047002.5,P
1683213495.5,286047001.9,P
1683213515.4,286047001.7,P
1683213535.2,286047002.5,Y
1683213555.0,286046998.7,P
1683213555.9,286046998.7,N
1683213575.8,286046996.6,N
1683213595.6,286046997.2,N
1683213615.4,286046997.2,N
1683213635.3,286046999.6,N
1683213655.1,286046999.2,N
1683213675.9,286046996.9,N
1683213695.7,286046997.0,N
1683213715.5,286046999.1,N
1683213735.4,286046998.4,N
1683213755.2,286047001.0,N
1683213775.0,286047000.5,N
1683213775.9,286047000.5,N
1683213795.8,286047000.4,N
1683213815.6,286046998.3,N
1683213835.5,286046998.3,N
1683213855.3,286046998.3,N
1683213875.1,286046998.1,N
1683213895.9,286047000.9,N
1683213915.7,286046998.1,N
1683213935.5,286047000.5,N
1683213955.4,286046999.9,N
1683213975.2,286047000.1,N
1683213995.1,286047000.1,N
1683213996.0,286047000.1,N
1683214015.8,286047002.7,N
1683214035.6,286047001.0,N
1683214055.5,286046998.1,N
1683214075.3,286047000.9,N
1683214095.1,286047002.5,N
1683214115.9,286047002.2,N
1683214135.7,286047002.4,N
1683214155.6,286046999.7,N
1683214175.4,286047000.1,N
1683214195.2,286047002.8,N
1683214215.1,286047000.2,N
1683214216.0,286047000.2,N
1683214235.8,286047002.4,N
1683214255.6,286047001.9,N
1683214275.5,286047002.2,N
1683214295.3,286047001.9,N
1683214315.2,286047002.0,N
1683214335.9,286047002.1,N
1683214355.7,286047002.0,N
1683214375.6,286047001.7,N
1683214395.4,286047004.0,N
1683214415.2,286047003.6,N
1683214435.1,286047003.6,N
1683214436.0,286047003.6,N
1683214455.8,286047003.5,N
1683214475.7,286047003.1,N
1683214495.5,286047004.4,Y
1683214515.3,286047001.0,P
1683214535.2,286046998.1,P
1683214555.9,286046998.1,N
1683214575.7,286046998.7,N
1683214595.6,286047000.3,N
1683214615.4,286047002.0,N
1683214635.2,286047000.1,N
1683214655.1,286047002.2,N
1683214656.0,286047002.2,N
1683214675.8,286046999.7,N
1683214695.7,286047002.7,N
1683214715.5,286046999.7,N
1683214735.3,286047000.1,N
1683214755.2,286047000.0,N
1683214775.0,286047002.0,N
1683214775.9,286047002.0,N
1683214795.8,286047002.8,N
1683214815.6,286047001.9,N
1683214835.4,286047001.6,N
1683214855.3,286047001.6,N
1683214875.1,286047001.5,N
1683214895.8,286047002.2,N
1683214915.7,286047002.3,N
1683214935.5,286047002.7,N
1683214985.4,286047000.4,E
1683214995.3,286047000.0,N
1683215015.1,286047002.8,P
1683215035.9,286047000.1,N
1683215055.7,286046998.2,N
1683215075.6,286047001.1,N
1683215095.4,286047001.2,N
1683215145.3,286047001.0,E
1683215155.2,286046998.8,N
1683215175.0,286046996.8,P
1683215175.9,286046996.8,P
1683215195.8,286046999.4,N
1683215215.6,286046999.2,N
1683215235.4,286046998.7,N
1683215255.3,286046998.4,N
1683215275.1,286046999.1,N
1683215295.9,286046996.6,Y
1683215315.7,286046999.3,P
1683215335.5,286046999.0,N
1683215355.4,286046999.4,N
1683215375.2,286046998.8,Y
1683215395.0,286046998.7,P
1683215395.9,286046998.7,P
1683215415.8,286046996.6,P
1683215435.6,286046998.8,N
1683215455.5,286047001.1,N
1683215475.3,286047000.7,N
1683215495.1,286046998.2,N
1683215515.9,286046998.5,N
1683215535.7,286047000.3,N
1683215555.5,286046998.2,N
1683215575.4,286046998.4,N
1683215595.2,286046996.5,N
1683215615.0,286046996.5,N
1683215616.0,286046996.5,N
1683215635.8,286046998.5,N
1683215655.6,286047001.2,N
1683215675.5,286046999.2,N
1683215695.3,286046998.2,N
1683215715.1,286047001.1,N
1683215735.9,286046998.1,N
1683215755.7,286046999.3,N
1683215775.5,286046999.6,N
1683215795.4,286046996.5,N
1683215815.2,286046994.9,Y
1683215835.1,286046996.5,P
1683215836.0,286046996.5,P
1683215855.8,286046999.2,N
1683215875.6,286046996.6,N
1683215895.5,286046996.5,N
1683215915.3,286046997.3,N
1683215935.1,286046996.7,Y
1683215955.9,286047001.1,P
1683215975.7,286047000.5,N
1683215995.6,286047001.1,N
